Starlink 11329

operational
NORAD ID: 61881 Int'l Des: 2024-204 Owner: SPXS Country: US Constellation: starlink
LEOCIRCULAR

Starlink 11329について

説明を読み込み中...

リアルタイム位置

3D地球を読み込み中...

次回通過

高度履歴

Altitude vs Time

uPlot chart will show altitude changes over time

軌道要素

1 61881U 24204H 25306.15384185 -.00001820 00000-0 -10166-4 0 9998
2 61881 53.1596 264.9706 0001239 90.2127 269.9033 15.69705055 56887
Epoch: Nov 2, 2025 • Age: 24 hours

現在のステータス

高度 379.0 km
速度 7.68 km/s
衛星直下点 -53.12°S, 77.46°E
打ち上げ日 Nov 9, 2024
運用期間 0.9 years
タイプ internet

技術仕様

分類 Payload
質量 960.00 kg
乾燥質量 910.00 kg
総質量 960.00 kg
長さ 0.30 m
直径 4.10 m
スパン 29.00 m
形状 Box + pan
製造者 SPXS
バスタイプ Starlink V2MD
フェーズステータス In Orbit
所有者/国 SPXS/US

大規模コンステレーション

Loading constellations...